{"data":{"norad_id":64926,"intl_designator":"2025-157Y","name":"STARLINK-34543","alt_names":[],"object_type":"PAYLOAD","status":"ACTIVE","operator":null,"country":"US","launch_date":"2025-07-26","launch_site_code":"AFETR","launch_vehicle":null,"mission":null,"orbit_class":"UNKNOWN","rcs_meters":null,"size_class":null,"mass_kg":null,"dimensions":null,"purposes":["comms"],"wikipedia_slug":null,"has_3d_model":false,"image_url":null,"decayed_at":null,"tle_current":{"epoch":"2026-09-19T22:47:23.783712Z","epoch_age_seconds":171867,"freshness":"FRESH","line1":"1 64926U 25157Y   26262.94958083  .00016883  00000+0  55430-3 0  9996","line2":"2 64926  53.1579 162.0858 0000789  92.6849 267.4243 15.31715552 65836","mean_motion":15.31715552,"eccentricity":7.89e-5,"inclination_deg":53.1579,"raan_deg":162.0858,"arg_perigee_deg":92.6849,"mean_anomaly_deg":267.4243,"bstar":0.0005543,"rev_number":6583,"period_min":94.012233414994,"perigee_km":470.15326317799,"apogee_km":471.23400865234,"semimajor_km":6848.8306359152,"source":"CELESTRAK","updated_at":"2026-09-21T09:00:35.484278Z"}}}